Time,TemperatureF,DewpointF,PressureIn,WindDirection,WindDirectionDegrees,WindSpeedMPH,WindSpeedGustMPH,Humidity,HourlyPrecipIn,Conditions,Clouds,dailyrainin,SolarRadiationWatts/m^2,SoftwareType,DateUTC
2013-05-03 00:03:00,34.2,29.9,30.41,NNW,333,6.0,7.0,84,0.00,,,0.00,0,Wunderground v.1.15,2013-05-03 05:03:00,
2013-05-03 00:08:00,34.4,30.1,30.41,NNW,333,6.0,7.0,84,0.00,,,0.00,0,Wunderground v.1.15,2013-05-03 05:08:00,
2013-05-03 00:13:00,34.4,30.1,30.42,NNW,330,5.0,6.0,84,0.00,,,0.00,0,Wunderground v.1.15,2013-05-03 05:13:00,
2013-05-03 00:18:00,34.3,29.7,30.41,NNW,330,5.0,6.0,83,0.00,,,0.00,0,Wunderground v.1.15,2013-05-03 05:18:00,
2013-05-03 00:23:00,34.0,29.4,30.41,NNW,331,5.0,5.0,83,0.00,,,0.00,0,Wunderground v.1.15,2013-05-03 05:23:00,
2013-05-03 00:28:00,33.7,29.1,30.41,NNW,336,6.0,6.0,83,0.00,,,0.00,0,Wunderground v.1.15,2013-05-03 05:28:00,
2013-05-03 00:33:00,33.5,29.2,30.41,NNW,338,6.0,6.0,84,0.00,,,0.00,0,Wunderground v.1.15,2013-05-03 05:33:00,
2013-05-03 00:38:00,33.3,29.0,30.40,NNW,338,6.0,7.0,84,0.00,,,0.00,0,Wunderground v.1.15,2013-05-03 05:38:00,
2013-05-03 00:43:00,33.2,28.9,30.40,NNW,342,7.0,7.0,84,0.00,,,0.00,0,Wunderground v.1.15,2013-05-03 05:43:00,
2013-05-03 00:48:00,33.3,29.3,30.40,NNW,344,6.0,8.0,85,0.00,,,0.00,0,Wunderground v.1.15,2013-05-03 05:48:00,
2013-05-03 00:53:00,33.4,29.1,30.40,NNW,340,5.0,7.0,84,0.00,,,0.00,0,Wunderground v.1.15,2013-05-03 05:53:00,
2013-05-03 00:59:00,33.4,29.1,30.40,NNW,339,5.0,7.0,84,0.00,,,0.00,0,Wunderground v.1.15,2013-05-03 05:59:00,
2013-05-03 01:05:00,33.2,28.6,30.39,NNW,341,7.0,7.0,83,0.00,,,0.00,0,Wunderground v.1.15,2013-05-03 06:05:00,
2013-05-03 01:10:00,33.0,28.7,30.39,NNW,347,6.0,6.0,84,0.00,,,0.00,0,Wunderground v.1.15,2013-05-03 06:10:00,
2013-05-03 01:15:00,33.0,28.7,30.39,NNW,348,6.0,7.0,84,0.00,,,0.00,0,Wunderground v.1.15,2013-05-03 06:15:00,
2013-05-03 01:20:00,33.0,28.7,30.39,NNW,345,6.0,6.0,84,0.00,,,0.00,0,Wunderground v.1.15,2013-05-03 06:20:00,
2013-05-03 01:25:00,33.0,28.7,30.39,NNW,342,5.0,6.0,84,0.00,,,0.00,0,Wunderground v.1.15,2013-05-03 06:25:00,
2013-05-03 01:30:00,32.9,28.6,30.39,NNW,347,5.0,5.0,84,0.00,,,0.00,0,Wunderground v.1.15,2013-05-03 06:30:00,
2013-05-03 01:35:00,32.8,28.5,30.38,North,351,6.0,6.0,84,0.00,,,0.00,0,Wunderground v.1.15,2013-05-03 06:35:00,
2013-05-03 01:40:00,32.7,28.4,30.38,NNW,348,6.0,6.0,84,0.00,,,0.00,0,Wunderground v.1.15,2013-05-03 06:40:00,
2013-05-03 01:45:00,32.6,28.3,30.38,NNW,344,5.0,6.0,84,0.00,,,0.00,0,Wunderground v.1.15,2013-05-03 06:45:00,
2013-05-03 01:50:00,32.5,28.2,30.38,NNW,330,5.0,5.0,84,0.00,,,0.00,0,Wunderground v.1.15,2013-05-03 06:50:00,
2013-05-03 01:55:00,32.4,28.1,30.38,NW,321,4.0,5.0,84,0.00,,,0.00,0,Wunderground v.1.15,2013-05-03 06:55:00,
2013-05-03 02:00:00,32.2,27.9,30.38,NNW,332,6.0,6.0,84,0.00,,,0.00,0,Wunderground v.1.15,2013-05-03 07:00:00,
2013-05-03 02:05:00,32.2,27.9,30.37,NW,325,8.0,9.0,84,0.00,,,0.00,0,Wunderground v.1.15,2013-05-03 07:05:00,
2013-05-03 02:10:00,32.2,28.2,30.37,NNW,327,6.0,7.0,85,0.00,,,0.00,0,Wunderground v.1.15,2013-05-03 07:10:00,
2013-05-03 02:15:00,32.3,28.3,30.37,NNW,329,5.0,8.0,85,0.00,,,0.00,0,Wunderground v.1.15,2013-05-03 07:15:00,
2013-05-03 02:20:00,32.3,28.3,30.37,NNW,330,5.0,6.0,85,0.00,,,0.00,0,Wunderground v.1.15,2013-05-03 07:20:00,
2013-05-03 02:25:00,32.3,28.0,30.37,NNW,330,6.0,6.0,84,0.00,,,0.00,0,Wunderground v.1.15,2013-05-03 07:25:00,
2013-05-03 02:30:00,32.2,27.9,30.37,NW,322,4.0,6.0,84,0.00,,,0.00,0,Wunderground v.1.15,2013-05-03 07:30:00,
2013-05-03 02:35:00,32.1,27.8,30.36,NW,321,6.0,7.0,84,0.00,,,0.00,0,Wunderground v.1.15,2013-05-03 07:35:00,
2013-05-03 02:40:00,32.0,28.0,30.36,NW,324,4.0,6.0,85,0.00,,,0.00,0,Wunderground v.1.15,2013-05-03 07:40:00,
2013-05-03 02:45:00,32.0,28.0,30.36,NNW,329,6.0,7.0,85,0.00,,,0.00,0,Wunderground v.1.15,2013-05-03 07:45:00,
2013-05-03 02:50:00,31.9,27.9,30.36,NNW,335,6.0,6.0,85,0.00,,,0.00,0,Wunderground v.1.15,2013-05-03 07:50:00,
2013-05-03 02:55:00,31.9,27.9,30.35,NW,321,5.0,11.0,85,0.00,,,0.00,0,Wunderground v.1.15,2013-05-03 07:55:00,
2013-05-03 03:01:00,32.0,28.0,30.35,NNW,327,7.0,7.0,85,0.00,,,0.00,0,Wunderground v.1.15,2013-05-03 08:01:00,
2013-05-03 03:06:00,32.0,28.0,30.35,NW,325,4.0,8.0,85,0.00,,,0.00,0,Wunderground v.1.15,2013-05-03 08:06:00,
2013-05-03 03:11:00,32.0,28.0,30.35,NW,325,4.0,8.0,85,0.00,,,0.00,0,Wunderground v.1.15,2013-05-03 08:11:00,
2013-05-03 03:16:00,32.1,28.1,30.35,NW,325,5.0,8.0,85,0.00,,,0.00,0,Wunderground v.1.15,2013-05-03 08:16:00,
2013-05-03 03:21:00,32.2,28.2,30.35,NW,317,4.0,6.0,85,0.00,,,0.00,0,Wunderground v.1.15,2013-05-03 08:21:00,
2013-05-03 03:26:00,32.2,28.2,30.35,NNW,334,5.0,8.0,85,0.00,,,0.00,0,Wunderground v.1.15,2013-05-03 08:26:00,
2013-05-03 03:31:00,32.2,27.9,30.35,NNW,333,7.0,8.0,84,0.00,,,0.00,0,Wunderground v.1.15,2013-05-03 08:31:00,
2013-05-03 03:36:00,32.1,27.8,30.35,NW,324,5.0,9.0,84,0.00,,,0.00,0,Wunderground v.1.15,2013-05-03 08:36:00,
2013-05-03 03:41:00,32.1,27.8,30.34,NW,324,4.0,7.0,84,0.00,,,0.00,0,Wunderground v.1.15,2013-05-03 08:41:00,
2013-05-03 03:46:00,32.0,27.7,30.34,NNW,336,6.0,7.0,84,0.00,,,0.00,0,Wunderground v.1.15,2013-05-03 08:46:00,
2013-05-03 03:51:00,31.9,27.6,30.34,NW,317,5.0,6.0,84,0.00,,,0.00,0,Wunderground v.1.15,2013-05-03 08:51:00,
2013-05-03 03:56:00,31.9,27.9,30.34,NNW,332,2.0,8.0,85,0.00,,,0.00,0,Wunderground v.1.15,2013-05-03 08:56:00,
2013-05-03 04:01:00,31.9,27.9,30.34,NW,318,4.0,7.0,85,0.00,,,0.00,0,Wunderground v.1.15,2013-05-03 09:01:00,
2013-05-03 04:06:00,31.9,27.9,30.34,NW,322,6.0,8.0,85,0.00,,,0.00,0,Wunderground v.1.15,2013-05-03 09:06:00,
2013-05-03 04:11:00,31.9,27.9,30.34,NNW,332,7.0,9.0,85,0.00,,,0.00,0,Wunderground v.1.15,2013-05-03 09:11:00,
2013-05-03 04:16:00,31.9,27.9,30.34,NNW,333,6.0,10.0,85,0.00,,,0.00,0,Wunderground v.1.15,2013-05-03 09:16:00,
2013-05-03 04:21:00,31.9,27.6,30.34,NNW,329,6.0,9.0,84,0.00,,,0.00,0,Wunderground v.1.15,2013-05-03 09:21:00,
2013-05-03 04:26:00,31.9,27.9,30.34,NNW,331,7.0,9.0,85,0.00,,,0.00,0,Wunderground v.1.15,2013-05-03 09:26:00,
2013-05-03 04:31:00,31.9,27.9,30.34,NNW,339,6.0,9.0,85,0.00,,,0.00,0,Wunderground v.1.15,2013-05-03 09:31:00,
2013-05-03 04:36:00,31.9,27.9,30.34,NNW,338,7.0,9.0,85,0.00,,,0.00,0,Wunderground v.1.15,2013-05-03 09:36:00,
2013-05-03 04:41:00,31.8,27.8,30.34,NNW,333,7.0,7.0,85,0.00,,,0.00,0,Wunderground v.1.15,2013-05-03 09:41:00,
2013-05-03 04:46:00,31.6,27.6,30.34,NNW,329,7.0,8.0,85,0.00,,,0.00,0,Wunderground v.1.15,2013-05-03 09:46:00,
2013-05-03 04:51:00,31.5,27.5,30.34,NNW,336,6.0,8.0,85,0.00,,,0.00,0,Wunderground v.1.15,2013-05-03 09:51:00,
2013-05-03 04:56:00,31.5,27.5,30.34,NNW,341,5.0,8.0,85,0.00,,,0.00,0,Wunderground v.1.15,2013-05-03 09:56:00,
2013-05-03 05:01:00,31.4,27.4,30.34,NW,325,7.0,9.0,85,0.00,,,0.00,0,Wunderground v.1.15,2013-05-03 10:01:00,
2013-05-03 05:06:00,31.3,27.3,30.34,NNW,340,6.0,9.0,85,0.00,,,0.00,0,Wunderground v.1.15,2013-05-03 10:06:00,
2013-05-03 05:11:00,31.2,27.2,30.34,NNW,332,6.0,7.0,85,0.00,,,0.00,0,Wunderground v.1.15,2013-05-03 10:11:00,
2013-05-03 05:16:00,31.2,27.2,30.34,NNW,327,7.0,8.0,85,0.00,,,0.00,0,Wunderground v.1.15,2013-05-03 10:16:00,
2013-05-03 05:21:00,31.1,27.1,30.34,NW,325,6.0,8.0,85,0.00,,,0.00,0,Wunderground v.1.15,2013-05-03 10:21:00,
2013-05-03 05:26:00,31.1,27.1,30.34,NNW,333,7.0,9.0,85,0.00,,,0.00,0,Wunderground v.1.15,2013-05-03 10:26:00,
2013-05-03 05:31:00,31.0,27.0,30.34,NW,323,6.0,8.0,85,0.00,,,0.00,0,Wunderground v.1.15,2013-05-03 10:31:00,
2013-05-03 05:36:00,30.9,27.2,30.33,NNW,333,9.0,9.0,86,0.00,,,0.00,0,Wunderground v.1.15,2013-05-03 10:36:00,
2013-05-03 05:41:00,30.9,27.2,30.33,NNW,331,6.0,8.0,86,0.00,,,0.00,0,Wunderground v.1.15,2013-05-03 10:41:00,
2013-05-03 05:46:00,30.8,27.1,30.33,NW,319,7.0,9.0,86,0.00,,,0.00,0,Wunderground v.1.15,2013-05-03 10:46:00,
2013-05-03 05:52:00,30.9,27.2,30.33,NW,324,8.0,9.0,86,0.00,,,0.00,0,Wunderground v.1.15,2013-05-03 10:52:00,
2013-05-03 05:57:00,30.9,27.2,30.33,NW,313,6.0,9.0,86,0.00,,,0.00,0,Wunderground v.1.15,2013-05-03 10:57:00,
2013-05-03 06:02:00,30.9,27.2,30.33,NNW,327,8.0,10.0,86,0.00,,,0.00,0,Wunderground v.1.15,2013-05-03 11:02:00,
2013-05-03 06:07:00,31.0,27.3,30.33,NNW,329,8.0,11.0,86,0.00,,,0.00,0,Wunderground v.1.15,2013-05-03 11:07:00,
2013-05-03 06:12:00,31.0,27.3,30.33,NNW,336,4.0,8.0,86,0.00,,,0.00,0,Wunderground v.1.15,2013-05-03 11:12:00,
2013-05-03 06:17:00,31.0,27.3,30.33,NW,314,6.0,11.0,86,0.00,,,0.00,0,Wunderground v.1.15,2013-05-03 11:17:00,
2013-05-03 06:22:00,31.0,27.3,30.33,North,355,7.0,11.0,86,0.00,,,0.00,0,Wunderground v.1.15,2013-05-03 11:22:00,
2013-05-03 06:28:00,31.1,27.4,30.33,NNW,328,8.0,11.0,86,0.00,,,0.00,5,Wunderground v.1.15,2013-05-03 11:28:00,
2013-05-03 06:33:00,31.2,27.5,30.32,NW,321,8.0,11.0,86,0.00,,,0.00,9,Wunderground v.1.15,2013-05-03 11:33:00,
2013-05-03 06:38:00,31.2,27.5,30.33,NNW,329,8.0,11.0,86,0.00,,,0.00,12,Wunderground v.1.15,2013-05-03 11:38:00,
2013-05-03 06:43:00,31.2,27.5,30.33,NNW,341,7.0,10.0,86,0.00,,,0.00,16,Wunderground v.1.15,2013-05-03 11:43:00,
2013-05-03 06:48:00,31.2,27.5,30.32,NNW,336,9.0,12.0,86,0.00,,,0.00,21,Wunderground v.1.15,2013-05-03 11:48:00,
2013-05-03 06:53:00,31.2,27.5,30.32,NW,321,10.0,10.0,86,0.00,,,0.00,35,Wunderground v.1.15,2013-05-03 11:53:00,
2013-05-03 06:58:00,31.3,27.6,30.33,NW,320,6.0,11.0,86,0.00,,,0.00,46,Wunderground v.1.15,2013-05-03 11:58:00,
2013-05-03 07:04:00,31.5,27.8,30.33,NNW,346,7.0,12.0,86,0.00,,,0.00,56,Wunderground v.1.15,2013-05-03 12:04:00,
2013-05-03 07:09:00,31.8,28.1,30.33,NNW,327,7.0,12.0,86,0.00,,,0.00,70,Wunderground v.1.15,2013-05-03 12:09:00,
2013-05-03 07:14:00,32.0,28.3,30.33,NNW,340,11.0,11.0,86,0.00,,,0.00,84,Wunderground v.1.15,2013-05-03 12:14:00,
2013-05-03 07:18:00,32.3,28.6,30.32,NNW,340,13.0,14.0,86,0.00,,,0.00,98,Wunderground v.1.15,2013-05-03 12:18:00,
2013-05-03 07:23:00,32.5,28.8,30.32,NNW,338,8.0,14.0,86,0.00,,,0.00,114,Wunderground v.1.15,2013-05-03 12:23:00,
2013-05-03 07:29:00,32.9,28.9,30.32,NNW,338,11.0,11.0,85,0.00,,,0.00,135,Wunderground v.1.15,2013-05-03 12:29:00,
2013-05-03 07:34:00,33.1,29.1,30.32,North,350,11.0,15.0,85,0.00,,,0.00,155,Wunderground v.1.15,2013-05-03 12:34:00,
2013-05-03 07:39:00,33.3,29.0,30.32,NNW,342,12.0,12.0,84,0.00,,,0.00,174,Wunderground v.1.15,2013-05-03 12:39:00,
2013-05-03 07:45:00,33.5,29.2,30.32,NNW,347,14.0,14.0,84,0.00,,,0.00,195,Wunderground v.1.15,2013-05-03 12:45:00,
2013-05-03 07:50:00,33.8,29.2,30.32,North,350,13.0,14.0,83,0.00,,,0.00,214,Wunderground v.1.15,2013-05-03 12:50:00,
2013-05-03 07:55:00,34.1,29.8,30.32,NNW,344,13.0,15.0,84,0.00,,,0.00,232,Wunderground v.1.15,2013-05-03 12:55:00,
2013-05-03 08:00:00,34.3,29.4,30.32,NNW,347,15.0,17.0,82,0.00,,,0.00,248,Wunderground v.1.15,2013-05-03 13:00:00,
2013-05-03 08:05:00,34.6,29.7,30.32,NNW,345,12.0,17.0,82,0.00,,,0.00,265,Wunderground v.1.15,2013-05-03 13:05:00,
2013-05-03 08:10:00,34.8,29.9,30.31,North,355,10.0,15.0,82,0.00,,,0.00,283,Wunderground v.1.15,2013-05-03 13:10:00,
2013-05-03 08:15:00,35.1,29.6,30.31,North,5,12.0,17.0,80,0.00,,,0.00,302,Wunderground v.1.15,2013-05-03 13:15:00,
2013-05-03 08:20:00,35.3,30.1,30.31,North,360,13.0,17.0,81,0.00,,,0.00,320,Wunderground v.1.15,2013-05-03 13:20:00,
2013-05-03 08:25:00,35.4,29.8,30.31,North,355,14.0,18.0,80,0.00,,,0.00,338,Wunderground v.1.15,2013-05-03 13:25:00,
2013-05-03 08:30:00,35.7,30.4,30.31,NNW,348,14.0,18.0,81,0.00,,,0.00,357,Wunderground v.1.15,2013-05-03 13:30:00,
2013-05-03 08:35:00,35.9,30.3,30.30,NNW,348,10.0,18.0,80,0.00,,,0.00,376,Wunderground v.1.15,2013-05-03 13:35:00,
2013-05-03 08:40:00,36.2,30.6,30.30,NNW,348,13.0,16.0,80,0.00,,,0.00,394,Wunderground v.1.15,2013-05-03 13:40:00,
2013-05-03 08:45:00,36.5,30.6,30.30,North,5,9.0,20.0,79,0.00,,,0.00,411,Wunderground v.1.15,2013-05-03 13:45:00,
2013-05-03 08:50:00,36.8,30.9,30.29,North,5,15.0,15.0,79,0.00,,,0.00,425,Wunderground v.1.15,2013-05-03 13:50:00,
2013-05-03 08:55:00,37.0,31.1,30.29,North,360,15.0,19.0,79,0.00,,,0.00,445,Wunderground v.1.15,2013-05-03 13:55:00,
2013-05-03 09:01:00,37.4,31.5,30.29,North,355,13.0,16.0,79,0.00,,,0.00,464,Wunderground v.1.15,2013-05-03 14:01:00,
2013-05-03 09:06:00,37.7,31.5,30.29,NNW,342,12.0,18.0,78,0.00,,,0.00,482,Wunderground v.1.15,2013-05-03 14:06:00,
2013-05-03 09:11:00,37.9,31.7,30.29,North,355,16.0,17.0,78,0.00,,,0.00,499,Wunderground v.1.15,2013-05-03 14:11:00,
2013-05-03 09:16:00,38.2,31.9,30.29,NNW,344,14.0,19.0,78,0.00,,,0.00,513,Wunderground v.1.15,2013-05-03 14:16:00,
2013-05-03 09:21:00,38.5,31.9,30.28,North,355,16.0,17.0,77,0.00,,,0.00,533,Wunderground v.1.15,2013-05-03 14:21:00,
2013-05-03 09:26:00,38.8,31.9,30.29,North,360,15.0,18.0,76,0.00,,,0.00,552,Wunderground v.1.15,2013-05-03 14:26:00,
2013-05-03 09:31:00,39.2,32.3,30.28,North,355,14.0,19.0,76,0.00,,,0.00,566,Wunderground v.1.15,2013-05-03 14:31:00,
2013-05-03 09:36:00,39.7,32.1,30.28,NNW,341,17.0,19.0,74,0.00,,,0.00,584,Wunderground v.1.15,2013-05-03 14:36:00,
2013-05-03 09:41:00,39.9,32.3,30.28,North,5,11.0,18.0,74,0.00,,,0.00,599,Wunderground v.1.15,2013-05-03 14:41:00,
2013-05-03 09:46:00,40.3,32.7,30.27,North,355,14.0,18.0,74,0.00,,,0.00,612,Wunderground v.1.15,2013-05-03 14:46:00,
2013-05-03 09:51:00,40.4,31.7,30.27,North,360,16.0,19.0,71,0.00,,,0.00,626,Wunderground v.1.15,2013-05-03 14:51:00,
2013-05-03 09:57:00,40.8,32.8,30.27,NNW,338,17.0,19.0,73,0.00,,,0.00,640,Wunderground v.1.15,2013-05-03 14:57:00,
2013-05-03 10:02:00,40.9,32.2,30.27,North,351,17.0,18.0,71,0.00,,,0.00,656,Wunderground v.1.15,2013-05-03 15:02:00,
2013-05-03 10:07:00,41.3,33.0,30.26,North,355,18.0,19.0,72,0.00,,,0.00,670,Wunderground v.1.15,2013-05-03 15:07:00,
2013-05-03 10:12:00,41.6,31.8,30.26,NNW,341,15.0,21.0,68,0.00,,,0.00,686,Wunderground v.1.15,2013-05-03 15:12:00,
2013-05-03 10:17:00,41.7,32.3,30.25,North,350,13.0,21.0,69,0.00,,,0.00,701,Wunderground v.1.15,2013-05-03 15:17:00,
2013-05-03 10:22:00,42.1,31.9,30.26,North,5,15.0,17.0,67,0.00,,,0.00,715,Wunderground v.1.15,2013-05-03 15:22:00,
2013-05-03 10:27:00,42.3,32.1,30.25,NNW,344,10.0,20.0,67,0.00,,,0.00,731,Wunderground v.1.15,2013-05-03 15:27:00,
2013-05-03 10:32:00,42.7,33.2,30.25,NNW,342,12.0,17.0,69,0.00,,,0.00,740,Wunderground v.1.15,2013-05-03 15:32:00,
2013-05-03 10:37:00,43.2,33.3,30.25,North,355,17.0,21.0,68,0.00,,,0.00,754,Wunderground v.1.15,2013-05-03 15:37:00,
2013-05-03 10:42:00,43.4,32.8,30.24,NNW,341,14.0,23.0,66,0.00,,,0.00,773,Wunderground v.1.15,2013-05-03 15:42:00,
2013-05-03 10:47:00,43.5,32.5,30.24,NNW,346,20.0,23.0,65,0.00,,,0.00,784,Wunderground v.1.15,2013-05-03 15:47:00,
2013-05-03 10:52:00,43.7,32.7,30.24,North,355,14.0,21.0,65,0.00,,,0.00,795,Wunderground v.1.15,2013-05-03 15:52:00,
2013-05-03 10:57:00,43.7,33.8,30.24,NNW,348,16.0,21.0,68,0.00,,,0.00,807,Wunderground v.1.15,2013-05-03 15:57:00,
2013-05-03 11:02:00,44.1,33.5,30.24,North,351,15.0,17.0,66,0.00,,,0.00,817,Wunderground v.1.15,2013-05-03 16:02:00,
2013-05-03 11:07:00,44.5,33.5,30.23,NNW,338,17.0,20.0,65,0.00,,,0.00,830,Wunderground v.1.15,2013-05-03 16:07:00,
2013-05-03 11:12:00,44.8,33.7,30.23,North,5,9.0,19.0,65,0.00,,,0.00,838,Wunderground v.1.15,2013-05-03 16:12:00,
2013-05-03 11:18:00,45.0,32.3,30.23,North,355,16.0,21.0,61,0.00,,,0.00,851,Wunderground v.1.15,2013-05-03 16:18:00,
2013-05-03 11:23:00,45.2,32.9,30.22,NNW,331,12.0,27.0,62,0.00,,,0.00,863,Wunderground v.1.15,2013-05-03 16:23:00,
2013-05-03 11:28:00,45.4,32.3,30.22,NNW,338,16.0,27.0,60,0.00,,,0.00,874,Wunderground v.1.15,2013-05-03 16:28:00,
2013-05-03 11:33:00,45.7,33.0,30.22,NNE,17,16.0,23.0,61,0.00,,,0.00,874,Wunderground v.1.15,2013-05-03 16:33:00,
2013-05-03 11:38:00,45.7,33.0,30.22,NNW,341,17.0,23.0,61,0.00,,,0.00,886,Wunderground v.1.15,2013-05-03 16:38:00,
2013-05-03 11:44:00,45.9,33.2,30.22,NNW,333,17.0,23.0,61,0.00,,,0.00,898,Wunderground v.1.15,2013-05-03 16:44:00,
2013-05-03 11:49:00,46.1,32.1,30.22,NNW,332,16.0,24.0,58,0.00,,,0.00,902,Wunderground v.1.15,2013-05-03 16:49:00,
2013-05-03 11:54:00,46.3,32.7,30.22,NNE,13,18.0,24.0,59,0.00,,,0.00,921,Wunderground v.1.15,2013-05-03 16:54:00,
2013-05-03 11:59:00,46.6,32.2,30.22,North,349,15.0,24.0,57,0.00,,,0.00,923,Wunderground v.1.15,2013-05-03 16:59:00,
2013-05-03 12:04:00,47.0,33.0,30.22,North,5,14.0,22.0,58,0.00,,,0.00,937,Wunderground v.1.15,2013-05-03 17:04:00,
2013-05-03 12:09:00,47.0,33.0,30.21,NNW,331,23.0,27.0,58,0.00,,,0.00,946,Wunderground v.1.15,2013-05-03 17:09:00,
2013-05-03 12:14:00,47.3,33.7,30.21,NNW,329,21.0,28.0,59,0.00,,,0.00,949,Wunderground v.1.15,2013-05-03 17:14:00,
2013-05-03 12:19:00,47.5,32.1,30.20,NNW,344,14.0,28.0,55,0.00,,,0.00,954,Wunderground v.1.15,2013-05-03 17:19:00,
2013-05-03 12:24:00,47.6,32.2,30.20,NNW,347,21.0,29.0,55,0.00,,,0.00,965,Wunderground v.1.15,2013-05-03 17:24:00,
2013-05-03 12:29:00,47.7,31.9,30.20,NNW,346,18.0,29.0,54,0.00,,,0.00,977,Wunderground v.1.15,2013-05-03 17:29:00,
2013-05-03 12:34:00,47.8,31.5,30.19,NNW,339,23.0,27.0,53,0.00,,,0.00,970,Wunderground v.1.15,2013-05-03 17:34:00,
2013-05-03 12:39:00,47.8,31.0,30.20,NNW,348,21.0,21.0,52,0.00,,,0.00,977,Wunderground v.1.15,2013-05-03 17:39:00,
2013-05-03 12:44:00,47.8,30.5,30.19,North,360,16.0,25.0,51,0.00,,,0.00,990,Wunderground v.1.15,2013-05-03 17:44:00,
2013-05-03 12:50:00,48.3,31.0,30.19,NNE,17,13.0,19.0,51,0.00,,,0.00,988,Wunderground v.1.15,2013-05-03 17:50:00,
2013-05-03 12:55:00,48.7,30.9,30.19,NNW,344,15.0,26.0,50,0.00,,,0.00,983,Wunderground v.1.15,2013-05-03 17:55:00,
2013-05-03 13:00:00,48.7,30.4,30.19,NNW,334,19.0,19.0,49,0.00,,,0.00,986,Wunderground v.1.15,2013-05-03 18:00:00,
2013-05-03 13:05:00,48.7,30.4,30.18,North,351,18.0,25.0,49,0.00,,,0.00,988,Wunderground v.1.15,2013-05-03 18:05:00,
2013-05-03 13:10:00,49.0,31.6,30.18,NNW,344,17.0,21.0,51,0.00,,,0.00,990,Wunderground v.1.15,2013-05-03 18:10:00,
2013-05-03 13:16:00,49.2,31.8,30.18,NNE,14,17.0,24.0,51,0.00,,,0.00,1002,Wunderground v.1.15,2013-05-03 18:16:00,
2013-05-03 13:21:00,49.4,31.0,30.18,North,5,19.0,24.0,49,0.00,,,0.00,925,Wunderground v.1.15,2013-05-03 18:21:00,
2013-05-03 13:26:00,49.2,29.8,30.17,North,355,15.0,24.0,47,0.00,,,0.00,925,Wunderground v.1.15,2013-05-03 18:26:00,
2013-05-03 13:31:00,49.4,31.0,30.17,NNW,336,18.0,27.0,49,0.00,,,0.00,911,Wunderground v.1.15,2013-05-03 18:31:00,
2013-05-03 13:36:00,49.6,29.6,30.16,NNW,337,24.0,27.0,46,0.00,,,0.00,1002,Wunderground v.1.15,2013-05-03 18:36:00,
2013-05-03 13:41:00,49.8,31.4,30.16,North,360,19.0,19.0,49,0.00,,,0.00,1039,Wunderground v.1.15,2013-05-03 18:41:00,
2013-05-03 13:47:00,50.1,29.6,30.16,North,5,19.0,27.0,45,0.00,,,0.00,937,Wunderground v.1.15,2013-05-03 18:47:00,
2013-05-03 13:52:00,50.4,31.4,30.16,NNW,346,23.0,24.0,48,0.00,,,0.00,1048,Wunderground v.1.15,2013-05-03 18:52:00,
2013-05-03 13:57:00,50.3,29.7,30.15,NNW,332,27.0,28.0,45,0.00,,,0.00,1027,Wunderground v.1.15,2013-05-03 18:57:00,
2013-05-03 14:02:00,50.1,30.6,30.15,NNW,338,25.0,30.0,47,0.00,,,0.00,991,Wunderground v.1.15,2013-05-03 19:02:00,
2013-05-03 14:07:00,50.1,31.7,30.15,NNE,13,17.0,30.0,49,0.00,,,0.00,1007,Wunderground v.1.15,2013-05-03 19:07:00,
2013-05-03 14:12:00,50.4,31.4,30.15,North,355,28.0,28.0,48,0.00,,,0.00,893,Wunderground v.1.15,2013-05-03 19:12:00,
2013-05-03 14:17:00,50.4,30.4,30.15,NNW,344,28.0,28.0,46,0.00,,,0.00,773,Wunderground v.1.15,2013-05-03 19:17:00,
2013-05-03 14:22:00,50.3,31.8,30.14,North,5,13.0,20.0,49,0.00,,,0.00,919,Wunderground v.1.15,2013-05-03 19:22:00,
2013-05-03 14:28:00,50.6,30.0,30.15,North,9,18.0,24.0,45,0.00,,,0.00,954,Wunderground v.1.15,2013-05-03 19:28:00,
2013-05-03 14:33:00,50.5,29.9,30.14,North,5,19.0,25.0,45,0.00,,,0.00,986,Wunderground v.1.15,2013-05-03 19:33:00,
2013-05-03 14:38:00,50.8,30.7,30.14,NNW,340,21.0,25.0,46,0.00,,,0.00,902,Wunderground v.1.15,2013-05-03 19:38:00,
2013-05-03 14:43:00,51.2,31.1,30.14,NNW,333,21.0,24.0,46,0.00,,,0.00,1041,Wunderground v.1.15,2013-05-03 19:43:00,
2013-05-03 14:48:00,50.8,30.2,30.14,NNE,22,16.0,27.0,45,0.00,,,0.00,889,Wunderground v.1.15,2013-05-03 19:48:00,
2013-05-03 14:53:00,50.8,31.3,30.13,NNE,14,18.0,23.0,47,0.00,,,0.00,979,Wunderground v.1.15,2013-05-03 19:53:00,
2013-05-03 14:58:00,51.4,32.3,30.13,North,355,16.0,23.0,48,0.00,,,0.00,991,Wunderground v.1.15,2013-05-03 19:58:00,
2013-05-03 15:03:00,51.9,31.2,30.13,NNW,336,15.0,26.0,45,0.00,,,0.00,1007,Wunderground v.1.15,2013-05-03 20:03:00,
2013-05-03 15:08:00,52.0,31.3,30.13,NNW,346,22.0,27.0,45,0.00,,,0.00,856,Wunderground v.1.15,2013-05-03 20:08:00,
2013-05-03 15:13:00,52.1,31.9,30.13,NNE,14,24.0,25.0,46,0.00,,,0.00,851,Wunderground v.1.15,2013-05-03 20:13:00,
2013-05-03 15:18:00,51.7,31.0,30.12,NNW,343,20.0,25.0,45,0.00,,,0.00,490,Wunderground v.1.15,2013-05-03 20:18:00,
2013-05-03 15:23:00,51.5,30.8,30.12,NNW,348,15.0,27.0,45,0.00,,,0.00,904,Wunderground v.1.15,2013-05-03 20:23:00,
2013-05-03 15:28:00,51.9,31.7,30.12,NNW,338,31.0,31.0,46,0.00,,,0.00,925,Wunderground v.1.15,2013-05-03 20:28:00,
2013-05-03 15:33:00,51.8,32.2,30.11,North,5,16.0,25.0,47,0.00,,,0.00,849,Wunderground v.1.15,2013-05-03 20:33:00,
2013-05-03 15:38:00,52.3,31.6,30.11,North,355,28.0,28.0,45,0.00,,,0.00,870,Wunderground v.1.15,2013-05-03 20:38:00,
2013-05-03 15:43:00,52.3,29.9,30.11,North,5,20.0,29.0,42,0.00,,,0.00,956,Wunderground v.1.15,2013-05-03 20:43:00,
2013-05-03 15:48:00,52.0,29.6,30.11,North,10,18.0,29.0,42,0.00,,,0.00,744,Wunderground v.1.15,2013-05-03 20:48:00,
2013-05-03 15:53:00,51.9,30.6,30.11,NNW,345,25.0,27.0,44,0.00,,,0.00,686,Wunderground v.1.15,2013-05-03 20:53:00,
2013-05-03 15:58:00,51.9,31.7,30.11,NNW,346,23.0,27.0,46,0.00,,,0.00,782,Wunderground v.1.15,2013-05-03 20:58:00,
2013-05-03 16:03:00,52.0,30.2,30.10,NNW,348,22.0,28.0,43,0.00,,,0.00,707,Wunderground v.1.15,2013-05-03 21:03:00,
2013-05-03 16:08:00,52.1,30.3,30.10,North,9,20.0,28.0,43,0.00,,,0.00,668,Wunderground v.1.15,2013-05-03 21:08:00,
2013-05-03 16:14:00,51.9,32.3,30.10,North,360,17.0,25.0,47,0.00,,,0.00,749,Wunderground v.1.15,2013-05-03 21:14:00,
2013-05-03 16:19:00,52.3,31.0,30.09,North,9,17.0,30.0,44,0.00,,,0.00,633,Wunderground v.1.15,2013-05-03 21:19:00,
2013-05-03 16:24:00,52.0,31.3,30.09,NNE,14,20.0,24.0,45,0.00,,,0.00,594,Wunderground v.1.15,2013-05-03 21:24:00,
2013-05-03 16:29:00,52.0,31.8,30.09,North,355,21.0,27.0,46,0.00,,,0.00,475,Wunderground v.1.15,2013-05-03 21:29:00,
2013-05-03 16:34:00,51.9,31.7,30.09,NNW,348,16.0,29.0,46,0.00,,,0.00,457,Wunderground v.1.15,2013-05-03 21:34:00,
2013-05-03 16:39:00,51.7,31.0,30.09,North,360,18.0,29.0,45,0.00,,,0.00,425,Wunderground v.1.15,2013-05-03 21:39:00,
2013-05-03 16:44:00,51.4,30.7,30.08,NNW,342,22.0,26.0,45,0.00,,,0.00,499,Wunderground v.1.15,2013-05-03 21:44:00,
2013-05-03 16:49:00,51.4,29.1,30.09,North,10,14.0,26.0,42,0.00,,,0.00,383,Wunderground v.1.15,2013-05-03 21:49:00,
2013-05-03 16:54:00,51.1,29.9,30.08,North,9,15.0,23.0,44,0.00,,,0.00,394,Wunderground v.1.15,2013-05-03 21:54:00,
2013-05-03 16:59:00,50.9,29.7,30.08,NNE,12,19.0,25.0,44,0.00,,,0.00,383,Wunderground v.1.15,2013-05-03 21:59:00,
2013-05-03 17:04:00,51.0,29.8,30.08,NNW,337,20.0,23.0,44,0.00,,,0.00,366,Wunderground v.1.15,2013-05-03 22:04:00,
2013-05-03 17:09:00,51.3,31.2,30.08,North,5,17.0,23.0,46,0.00,,,0.00,338,Wunderground v.1.15,2013-05-03 22:09:00,
2013-05-03 17:14:00,51.1,29.4,30.08,North,11,15.0,22.0,43,0.00,,,0.00,366,Wunderground v.1.15,2013-05-03 22:14:00,
2013-05-03 17:19:00,51.0,29.8,30.08,North,360,12.0,26.0,44,0.00,,,0.00,489,Wunderground v.1.15,2013-05-03 22:19:00,
2013-05-03 17:24:00,51.3,29.5,30.08,NNE,24,18.0,27.0,43,0.00,,,0.00,457,Wunderground v.1.15,2013-05-03 22:24:00,
2013-05-03 17:29:00,51.2,30.6,30.08,NNE,17,20.0,27.0,45,0.00,,,0.00,378,Wunderground v.1.15,2013-05-03 22:29:00,
2013-05-03 17:34:00,51.1,29.4,30.08,North,9,21.0,28.0,43,0.00,,,0.00,385,Wunderground v.1.15,2013-05-03 22:34:00,
2013-05-03 17:39:00,50.9,29.7,30.07,NNE,17,17.0,28.0,44,0.00,,,0.00,406,Wunderground v.1.15,2013-05-03 22:39:00,
2013-05-03 17:44:00,51.0,30.9,30.07,North,5,18.0,25.0,46,0.00,,,0.00,352,Wunderground v.1.15,2013-05-03 22:44:00,
2013-05-03 17:49:00,50.8,30.2,30.07,NNE,20,17.0,25.0,45,0.00,,,0.00,304,Wunderground v.1.15,2013-05-03 22:49:00,
2013-05-03 17:54:00,50.6,30.6,30.08,North,9,17.0,23.0,46,0.00,,,0.00,292,Wunderground v.1.15,2013-05-03 22:54:00,
2013-05-03 17:59:00,50.6,29.5,30.07,North,360,19.0,23.0,44,0.00,,,0.00,250,Wunderground v.1.15,2013-05-03 22:59:00,
2013-05-03 18:04:00,50.4,29.8,30.07,North,360,14.0,28.0,45,0.00,,,0.00,218,Wunderground v.1.15,2013-05-03 23:04:00,
2013-05-03 18:09:00,49.9,29.4,30.07,NNE,23,17.0,28.0,45,0.00,,,0.00,174,Wunderground v.1.15,2013-05-03 23:09:00,
2013-05-03 18:14:00,49.6,29.1,30.07,North,355,20.0,26.0,45,0.00,,,0.00,200,Wunderground v.1.15,2013-05-03 23:14:00,
2013-05-03 18:19:00,49.7,29.7,30.07,North,5,17.0,26.0,46,0.00,,,0.00,221,Wunderground v.1.15,2013-05-03 23:19:00,
2013-05-03 18:24:00,49.9,29.9,30.07,North,355,17.0,20.0,46,0.00,,,0.00,271,Wunderground v.1.15,2013-05-03 23:24:00,
2013-05-03 18:29:00,50.1,29.0,30.07,North,5,23.0,25.0,44,0.00,,,0.00,237,Wunderground v.1.15,2013-05-03 23:29:00,
2013-05-03 18:34:00,50.0,27.8,30.06,North,5,17.0,24.0,42,0.00,,,0.00,171,Wunderground v.1.15,2013-05-03 23:34:00,
2013-05-03 18:39:00,49.7,28.6,30.06,North,355,18.0,24.0,44,0.00,,,0.00,160,Wunderground v.1.15,2013-05-03 23:39:00,
2013-05-03 18:44:00,49.6,29.1,30.06,NNW,347,18.0,21.0,45,0.00,,,0.00,248,Wunderground v.1.15,2013-05-03 23:44:00,
2013-05-03 18:49:00,49.6,27.4,30.06,North,351,18.0,18.0,42,0.00,,,0.00,130,Wunderground v.1.15,2013-05-03 23:49:00,
2013-05-03 18:54:00,49.5,28.5,30.06,North,355,21.0,22.0,44,0.00,,,0.00,123,Wunderground v.1.15,2013-05-03 23:54:00,
2013-05-03 18:59:00,49.4,28.4,30.06,North,360,16.0,20.0,44,0.00,,,0.00,105,Wunderground v.1.15,2013-05-03 23:59:00,
2013-05-03 19:05:00,49.1,28.1,30.05,North,5,17.0,22.0,44,0.00,,,0.00,105,Wunderground v.1.15,2013-05-04 00:05:00,
2013-05-03 19:10:00,48.9,28.5,30.05,North,9,13.0,15.0,45,0.00,,,0.00,113,Wunderground v.1.15,2013-05-04 00:10:00,
2013-05-03 19:15:00,48.8,28.4,30.05,North,10,13.0,20.0,45,0.00,,,0.00,107,Wunderground v.1.15,2013-05-04 00:15:00,
2013-05-03 19:20:00,48.9,30.1,30.05,North,5,11.0,14.0,48,0.00,,,0.00,197,Wunderground v.1.15,2013-05-04 00:20:00,
2013-05-03 19:25:00,49.2,28.7,30.05,North,355,17.0,24.0,45,0.00,,,0.00,197,Wunderground v.1.15,2013-05-04 00:25:00,
2013-05-03 19:30:00,49.5,28.5,30.05,NNE,14,12.0,16.0,44,0.00,,,0.00,171,Wunderground v.1.15,2013-05-04 00:30:00,
2013-05-03 19:35:00,49.6,28.0,30.05,North,360,16.0,23.0,43,0.00,,,0.00,142,Wunderground v.1.15,2013-05-04 00:35:00,
2013-05-03 19:40:00,49.7,29.2,30.05,North,9,13.0,17.0,45,0.00,,,0.00,125,Wunderground v.1.15,2013-05-04 00:40:00,
2013-05-03 19:45:00,49.4,28.9,30.05,North,360,16.0,20.0,45,0.00,,,0.00,97,Wunderground v.1.15,2013-05-04 00:45:00,
2013-05-03 19:50:00,49.3,30.4,30.05,NNE,24,20.0,21.0,48,0.00,,,0.00,77,Wunderground v.1.15,2013-05-04 00:50:00,
2013-05-03 19:55:00,48.9,31.1,30.06,NNE,24,13.0,21.0,50,0.00,,,0.00,56,Wunderground v.1.15,2013-05-04 00:55:00,
2013-05-03 20:00:00,48.6,30.3,30.05,NE,37,12.0,13.0,49,0.00,,,0.00,39,Wunderground v.1.15,2013-05-04 01:00:00,
2013-05-03 20:05:00,48.3,30.0,30.05,NNE,15,15.0,20.0,49,0.00,,,0.00,28,Wunderground v.1.15,2013-05-04 01:05:00,
2013-05-03 20:11:00,48.0,30.2,30.06,NNE,21,17.0,17.0,50,0.00,,,0.00,21,Wunderground v.1.15,2013-05-04 01:11:00,
2013-05-03 20:16:00,47.7,30.9,30.05,NNE,13,10.0,17.0,52,0.00,,,0.00,14,Wunderground v.1.15,2013-05-04 01:16:00,
2013-05-03 20:21:00,47.4,31.1,30.06,NNE,26,10.0,13.0,53,0.00,,,0.00,11,Wunderground v.1.15,2013-05-04 01:21:00,
2013-05-03 20:26:00,47.0,31.2,30.06,NE,36,9.0,13.0,54,0.00,,,0.00,5,Wunderground v.1.15,2013-05-04 01:26:00,
2013-05-03 20:31:00,46.8,31.0,30.06,NNE,18,11.0,14.0,54,0.00,,,0.00,0,Wunderground v.1.15,2013-05-04 01:31:00,
2013-05-03 20:36:00,46.6,30.8,30.05,NNE,26,11.0,17.0,54,0.00,,,0.00,0,Wunderground v.1.15,2013-05-04 01:36:00,
2013-05-03 20:41:00,46.3,31.0,30.05,NNE,13,10.0,12.0,55,0.00,,,0.00,0,Wunderground v.1.15,2013-05-04 01:41:00,
2013-05-03 20:46:00,46.0,30.7,30.05,NNE,23,12.0,18.0,55,0.00,,,0.00,0,Wunderground v.1.15,2013-05-04 01:46:00,
2013-05-03 20:51:00,45.8,31.0,30.05,NNE,29,11.0,12.0,56,0.00,,,0.00,0,Wunderground v.1.15,2013-05-04 01:51:00,
2013-05-03 20:56:00,45.4,31.0,30.05,North,11,9.0,14.0,57,0.00,,,0.00,0,Wunderground v.1.15,2013-05-04 01:56:00,
2013-05-03 21:01:00,45.1,31.2,30.05,NNE,26,11.0,11.0,58,0.00,,,0.00,0,Wunderground v.1.15,2013-05-04 02:01:00,
2013-05-03 21:06:00,44.8,31.3,30.06,NNE,19,9.0,12.0,59,0.00,,,0.00,0,Wunderground v.1.15,2013-05-04 02:06:00,
2013-05-03 21:11:00,44.6,31.6,30.05,NNE,13,8.0,9.0,60,0.00,,,0.00,0,Wunderground v.1.15,2013-05-04 02:11:00,
2013-05-03 21:16:00,44.4,32.2,30.06,NNE,18,8.0,10.0,62,0.00,,,0.00,0,Wunderground v.1.15,2013-05-04 02:16:00,
2013-05-03 21:21:00,44.3,32.1,30.05,North,11,8.0,9.0,62,0.00,,,0.00,0,Wunderground v.1.15,2013-05-04 02:21:00,
2013-05-03 21:26:00,44.2,32.0,30.05,NNE,12,6.0,10.0,62,0.00,,,0.00,0,Wunderground v.1.15,2013-05-04 02:26:00,
2013-05-03 21:31:00,44.1,31.9,30.05,NNE,17,10.0,10.0,62,0.00,,,0.00,0,Wunderground v.1.15,2013-05-04 02:31:00,
2013-05-03 21:36:00,44.1,31.9,30.05,NNE,25,6.0,11.0,62,0.00,,,0.00,0,Wunderground v.1.15,2013-05-04 02:36:00,
2013-05-03 21:41:00,44.1,32.3,30.05,NNE,20,6.0,8.0,63,0.00,,,0.00,0,Wunderground v.1.15,2013-05-04 02:41:00,
2013-05-03 21:46:00,43.8,32.4,30.05,NNE,19,7.0,8.0,64,0.00,,,0.00,0,Wunderground v.1.15,2013-05-04 02:46:00,
2013-05-03 21:51:00,43.4,32.0,30.06,NNE,28,5.0,7.0,64,0.00,,,0.00,0,Wunderground v.1.15,2013-05-04 02:51:00,
2013-05-03 21:56:00,43.1,32.1,30.06,NNE,28,3.0,7.0,65,0.00,,,0.00,0,Wunderground v.1.15,2013-05-04 02:56:00,
2013-05-03 22:01:00,42.8,32.6,30.06,NNE,28,4.0,4.0,67,0.00,,,0.00,0,Wunderground v.1.15,2013-05-04 03:01:00,
2013-05-03 22:06:00,42.4,32.2,30.06,NNE,26,4.0,5.0,67,0.00,,,0.00,0,Wunderground v.1.15,2013-05-04 03:06:00,
2013-05-03 22:11:00,42.1,32.7,30.06,NNE,24,5.0,5.0,69,0.00,,,0.00,0,Wunderground v.1.15,2013-05-04 03:11:00,
2013-05-03 22:16:00,41.8,32.7,30.06,NNE,24,5.0,6.0,70,0.00,,,0.00,0,Wunderground v.1.15,2013-05-04 03:16:00,
2013-05-03 22:21:00,41.7,33.0,30.06,NNE,15,6.0,6.0,71,0.00,,,0.00,0,Wunderground v.1.15,2013-05-04 03:21:00,
2013-05-03 22:26:00,41.8,33.4,30.06,North,11,5.0,8.0,72,0.00,,,0.00,0,Wunderground v.1.15,2013-05-04 03:26:00,
2013-05-03 22:32:00,41.9,33.5,30.06,North,5,5.0,6.0,72,0.00,,,0.00,0,Wunderground v.1.15,2013-05-04 03:32:00,
2013-05-03 22:37:00,42.0,33.3,30.05,North,355,7.0,8.0,71,0.00,,,0.00,0,Wunderground v.1.15,2013-05-04 03:37:00,
2013-05-03 22:42:00,42.2,33.5,30.05,North,355,8.0,10.0,71,0.00,,,0.00,0,Wunderground v.1.15,2013-05-04 03:42:00,
2013-05-03 22:47:00,42.4,33.3,30.04,North,355,9.0,11.0,70,0.00,,,0.00,0,Wunderground v.1.15,2013-05-04 03:47:00,
2013-05-03 22:52:00,42.6,33.1,30.04,NNE,12,10.0,12.0,69,0.00,,,0.00,0,Wunderground v.1.15,2013-05-04 03:52:00,
2013-05-03 22:57:00,42.7,33.2,30.04,North,355,13.0,14.0,69,0.00,,,0.00,0,Wunderground v.1.15,2013-05-04 03:57:00,
2013-05-03 23:01:00,42.9,33.1,30.04,North,5,12.0,14.0,68,0.00,,,0.00,0,Wunderground v.1.15,2013-05-04 04:01:00,
2013-05-03 23:06:00,43.0,32.8,30.03,NNE,13,11.0,15.0,67,0.00,,,0.00,0,Wunderground v.1.15,2013-05-04 04:06:00,
2013-05-03 23:11:00,43.1,32.5,30.03,North,5,12.0,14.0,66,0.00,,,0.00,0,Wunderground v.1.15,2013-05-04 04:11:00,
2013-05-03 23:16:00,43.1,32.5,30.03,NNE,19,14.0,15.0,66,0.00,,,0.00,0,Wunderground v.1.15,2013-05-04 04:16:00,
2013-05-03 23:21:00,43.1,32.1,30.03,NNE,19,12.0,17.0,65,0.00,,,0.00,0,Wunderground v.1.15,2013-05-04 04:21:00,
2013-05-03 23:27:00,43.2,32.2,30.03,North,360,14.0,17.0,65,0.00,,,0.00,0,Wunderground v.1.15,2013-05-04 04:27:00,
2013-05-03 23:32:00,43.1,32.5,30.03,North,360,13.0,17.0,66,0.00,,,0.00,0,Wunderground v.1.15,2013-05-04 04:32:00,
2013-05-03 23:37:00,42.9,31.9,30.03,North,11,14.0,23.0,65,0.00,,,0.00,0,Wunderground v.1.15,2013-05-04 04:37:00,
2013-05-03 23:42:00,42.8,31.8,30.03,NNE,18,15.0,21.0,65,0.00,,,0.00,0,Wunderground v.1.15,2013-05-04 04:42:00,
2013-05-03 23:47:00,42.7,32.1,30.03,NE,36,12.0,21.0,66,0.00,,,0.00,0,Wunderground v.1.15,2013-05-04 04:47:00,
2013-05-03 23:52:00,42.5,31.6,30.03,NNE,13,14.0,18.0,65,0.00,,,0.00,0,Wunderground v.1.15,2013-05-04 04:52:00,
2013-05-03 23:58:00,42.4,31.5,30.03,NNE,13,17.0,21.0,65,0.00,,,0.00,0,Wunderground v.1.15,2013-05-04 04:58:00,